Buffalo, NY

7:00 AM EST on November 22, 2019 (GMT -0500)
Buffalo Niagara International

Weather History for KBUF - September, 2019

Change the Weather History Date:

Wednesday, September 18, 2019

  Actual Average Record
Temperature  
Mean Temperature 64 °F 62 °F  
Max Temperature 75 °F 70 °F 89 °F (1946)
Min Temperature 52 °F 53 °F 37 °F (1943)
Degree Days  
Heating Degree Days 1 5  
Month to date heating degree days 21 53  
Since 1 July heating degree days 24 80  
Cooling Degree Days 0 1  
Month to date cooling degree days 26 43  
Year to date cooling degree days 571 530  
Growing Degree Days 14 (Base 50)    
Moisture  
Dew Point 50 °F    
Average Humidity 63    
Maximum Humidity 83    
Minimum Humidity 43    
Precipitation  
Precipitation 0.00 in 0.13 in 2.11 in (1945)
Month to date precipitation 4.52 2.19  
Year to date precipitation 32.89 27.35  
Snow  
Snow 0.00 in 0.00 in 0.00 in ()
Month to date snowfall 0.0 0.0  
Since 1 July snowfall 0.0 0.0  
Since 1 September snowfall 0.0 0.0  
Snow Depth 0.00 in    
Sea Level Pressure  
Sea Level Pressure 30.26 in    
Wind  
Wind Speed 6 mph (ESE)    
Max Wind Speed 14 mph    
Max Gust Speed 18 mph    
Visibility 10 miles    
Events      
T = Trace of Precipitation, MM = Missing Value Source: NWS Daily Summary

Daily Weather History Graph

Daily Weather History Graph

Search for Another Location

Airport or City:

Astronomy

Sep. 18, 2019 Rise Set
Actual Time 6:57 AM EDT 7:19 PM EDT
Civil Twilight 6:29 AM EDT 7:48 PM EDT
Nautical Twilight 5:55 AM EDT 8:21 PM EDT
Astronomical Twilight 5:21 AM EDT 8:55 PM EDT
Moon 9:46 PM EDT (9/18) 11:04 AM EDT (9/18)
Length of Visible Light 13h 18m
Length of Day
12h 22m
Waning Gibbous, 82% of the Moon is Illuminated
Sep 18
Waning Gibbous
Sep 21
Last Quarter
Sep 28
New
Oct 5
First Quarter
Oct 13
Full

Hourly Weather History & Observations

Time (EDT) Temp. Dew Point Humidity Pressure Visibility Wind Dir Wind Speed Gust Speed Precip Events Conditions
12:54 AM 57.0 °F 48.9 °F 74% 30.22 in 10.0 mi SE 5.8 mph - N/A   Clear
1:54 AM 55.9 °F 48.0 °F 75% 30.23 in 10.0 mi SE 4.6 mph - N/A   Clear
2:54 AM 55.0 °F 48.0 °F 77% 30.23 in 10.0 mi SE 3.5 mph - N/A   Partly Cloudy
3:54 AM 54.0 °F 46.9 °F 77% 30.23 in 10.0 mi East 3.5 mph - N/A   Partly Cloudy
4:54 AM 53.1 °F 46.9 °F 80% 30.23 in 10.0 mi ESE 5.8 mph - N/A   Partly Cloudy
5:54 AM 53.1 °F 46.0 °F 77% 30.25 in 10.0 mi ESE 3.5 mph - N/A   Partly Cloudy
6:54 AM 52.0 °F 46.0 °F 80% 30.26 in 10.0 mi ESE 5.8 mph - N/A   Clear
7:54 AM 55.0 °F 46.0 °F 72% 30.27 in 10.0 mi SE 4.6 mph - N/A   Partly Cloudy
8:54 AM 59.0 °F 46.9 °F 64% 30.28 in 10.0 mi SE 3.5 mph - N/A   Partly Cloudy
9:54 AM 64.9 °F 48.0 °F 54% 30.27 in 10.0 mi ESE 5.8 mph - N/A   Partly Cloudy
10:54 AM 68.0 °F 48.9 °F 50% 30.27 in 10.0 mi ESE 6.9 mph - N/A   Scattered Clouds
11:54 AM 71.1 °F 50.0 °F 47% 30.27 in 10.0 mi ESE 11.5 mph - N/A   Partly Cloudy
12:54 PM 73.0 °F 51.1 °F 46% 30.27 in 10.0 mi ESE 11.5 mph - N/A   Scattered Clouds
1:54 PM 73.9 °F 51.1 °F 45% 30.27 in 10.0 mi NE 10.4 mph - N/A   Scattered Clouds
2:54 PM 73.9 °F 52.0 °F 46% 30.27 in 10.0 mi ENE 8.1 mph 17.3 mph N/A   Scattered Clouds
3:54 PM 75.0 °F 51.1 °F 43% 30.26 in 10.0 mi East 8.1 mph - N/A   Scattered Clouds
4:54 PM 73.9 °F 53.1 °F 48% 30.26 in 10.0 mi East 5.8 mph - N/A   Scattered Clouds
5:54 PM 73.0 °F 54.0 °F 51% 30.26 in 10.0 mi ENE 9.2 mph - N/A   Scattered Clouds
6:54 PM 70.0 °F 52.0 °F 53% 30.27 in 10.0 mi East 5.8 mph - N/A   Partly Cloudy
7:54 PM 66.0 °F 55.0 °F 68% 30.26 in 10.0 mi ENE 6.9 mph - N/A   Partly Cloudy
8:54 PM 64.9 °F 54.0 °F 68% 30.27 in 10.0 mi East 6.9 mph - N/A   Partly Cloudy
9:54 PM 63.0 °F 53.1 °F 70% 30.27 in 10.0 mi East 8.1 mph - N/A   Partly Cloudy
10:54 PM 60.1 °F 52.0 °F 75% 30.27 in 10.0 mi Calm Calm - N/A   Scattered Clouds
11:54 PM 59.0 °F 52.0 °F 78% 30.27 in 10.0 mi SE 5.8 mph - N/A   Scattered Clouds